Time,TemperatureF,DewpointF,PressureIn,WindDirection,WindDirectionDegrees,WindSpeedMPH,WindSpeedGustMPH,Humidity,HourlyPrecipIn,Conditions,Clouds,dailyrainin,SoftwareType,DateUTC
2013-08-02 00:02:00,74.0,73.0,29.94,SSW,198,2.0,3.0,96,0.00,,,0.60,,2013-08-02 04:02:00,
2013-08-02 00:12:00,74.0,73.0,29.94,South,173,1.0,4.0,96,0.00,,,0.60,,2013-08-02 04:12:00,
2013-08-02 00:22:00,74.0,73.0,29.95,South,174,0.0,1.0,96,0.00,,,0.37,,2013-08-02 04:22:00,
2013-08-02 00:33:00,74.0,73.0,29.95,South,174,0.0,1.0,96,0.00,,,0.37,,2013-08-02 04:33:00,
2013-08-02 00:43:00,74.0,73.0,29.95,South,186,2.0,4.0,97,0.00,,,0.37,,2013-08-02 04:43:00,
2013-08-02 00:53:00,74.0,73.0,29.95,SW,232,1.0,3.0,97,0.00,,,0.37,,2013-08-02 04:53:00,
2013-08-02 01:02:00,75.0,74.0,29.94,South,190,4.0,7.0,97,0.00,,,0.37,,2013-08-02 05:02:00,
2013-08-02 01:12:00,75.0,74.0,29.94,South,190,4.0,7.0,97,0.00,,,0.37,,2013-08-02 05:12:00,
2013-08-02 01:22:00,75.0,74.0,29.94,SW,215,3.0,9.0,97,0.00,,,0.35,,2013-08-02 05:22:00,
2013-08-02 01:32:00,74.0,73.0,29.95,WSW,255,0.0,2.0,97,0.00,,,0.35,,2013-08-02 05:32:00,
2013-08-02 01:43:00,74.0,73.0,29.95,WSW,255,0.0,2.0,97,0.00,,,0.35,,2013-08-02 05:43:00,
2013-08-02 01:53:00,75.0,74.0,29.95,NNW,334,2.0,4.0,97,0.00,,,0.35,,2013-08-02 05:53:00,
2013-08-02 02:02:00,74.0,73.0,29.95,West,276,0.0,2.0,97,0.00,,,0.35,,2013-08-02 06:02:00,
2013-08-02 02:12:00,74.0,73.0,29.95,West,276,0.0,2.0,97,0.00,,,0.35,,2013-08-02 06:12:00,
2013-08-02 02:22:00,75.0,74.0,29.94,West,269,2.0,4.0,97,0.00,,,0.35,,2013-08-02 06:22:00,
2013-08-02 02:33:00,75.0,74.0,29.94,WNW,287,1.0,6.0,97,0.00,,,0.35,,2013-08-02 06:33:00,
2013-08-02 02:43:00,75.0,74.0,29.94,WNW,287,1.0,6.0,97,0.00,,,0.35,,2013-08-02 06:43:00,
2013-08-02 02:52:00,75.0,74.0,29.95,WNW,292,0.0,4.0,96,0.00,,,0.35,,2013-08-02 06:52:00,
2013-08-02 03:02:00,74.0,72.0,29.95,NE,36,2.0,8.0,92,0.00,,,0.35,,2013-08-02 07:02:00,
2013-08-02 03:12:00,74.0,72.0,29.95,NE,36,2.0,8.0,92,0.00,,,0.35,,2013-08-02 07:12:00,
2013-08-02 03:22:00,73.0,70.0,29.94,West,276,1.0,2.0,90,0.00,,,0.35,,2013-08-02 07:22:00,
2013-08-02 03:33:00,73.0,70.0,29.93,SW,221,0.0,1.0,91,0.00,,,0.35,,2013-08-02 07:33:00,
2013-08-02 03:44:00,73.0,70.0,29.93,SW,221,0.0,1.0,91,0.00,,,0.35,,2013-08-02 07:44:00,
2013-08-02 03:53:00,72.0,70.0,29.93,SW,218,2.0,2.0,93,0.00,,,0.35,,2013-08-02 07:53:00,
2013-08-02 04:02:00,72.0,70.0,29.93,SSW,211,2.0,4.0,94,0.00,,,0.35,,2013-08-02 08:02:00,
2013-08-02 04:12:00,72.0,70.0,29.93,SSW,211,2.0,4.0,94,0.00,,,0.35,,2013-08-02 08:12:00,
2013-08-02 04:22:00,71.0,69.0,29.92,SSW,205,2.0,2.0,95,0.00,,,0.35,,2013-08-02 08:22:00,
2013-08-02 04:33:00,72.0,70.0,29.91,SW,229,1.0,4.0,95,0.00,,,0.35,,2013-08-02 08:33:00,
2013-08-02 04:43:00,72.0,70.0,29.91,SW,229,1.0,4.0,95,0.00,,,0.35,,2013-08-02 08:43:00,
2013-08-02 04:54:00,72.0,70.0,29.91,West,260,1.0,3.0,94,0.00,,,0.35,,2013-08-02 08:54:00,
2013-08-02 05:02:00,72.0,70.0,29.91,West,264,0.0,3.0,94,0.00,,,0.35,,2013-08-02 09:02:00,
2013-08-02 05:12:00,72.0,70.0,29.91,West,264,0.0,3.0,94,0.00,,,0.35,,2013-08-02 09:12:00,
2013-08-02 05:23:00,72.0,70.0,29.93,SW,226,0.0,2.0,95,0.00,,,0.35,,2013-08-02 09:23:00,
2013-08-02 05:44:00,72.0,70.0,29.93,SSW,197,0.0,2.0,95,0.00,,,0.35,,2013-08-02 09:44:00,
2013-08-02 05:53:00,72.0,71.0,29.94,SW,228,0.0,3.0,96,0.00,,,0.35,,2013-08-02 09:53:00,
2013-08-02 06:03:00,72.0,71.0,29.94,SW,235,0.0,1.0,96,0.00,,,0.35,,2013-08-02 10:03:00,
2013-08-02 06:12:00,72.0,71.0,29.94,SW,235,0.0,1.0,96,0.00,,,0.35,,2013-08-02 10:12:00,
2013-08-02 06:23:00,72.0,71.0,29.95,North,1,1.0,2.0,96,0.00,,,0.35,,2013-08-02 10:23:00,
2013-08-02 06:43:00,71.0,70.0,29.95,North,1,0.0,0.0,97,0.00,,,0.35,,2013-08-02 10:43:00,
2013-08-02 06:52:00,71.0,70.0,29.96,North,1,0.0,0.0,97,0.00,,,0.35,,2013-08-02 10:52:00,
2013-08-02 07:02:00,71.0,70.0,29.96,North,1,0.0,1.0,97,0.00,,,0.35,,2013-08-02 11:02:00,
2013-08-02 07:12:00,71.0,70.0,29.96,North,1,0.0,1.0,97,0.00,,,0.35,,2013-08-02 11:12:00,
2013-08-02 07:23:00,71.0,70.0,29.96,NW,326,0.0,0.0,97,0.00,,,0.35,,2013-08-02 11:23:00,
2013-08-02 07:33:00,71.0,70.0,29.97,NNW,347,1.0,2.0,97,0.00,,,0.35,,2013-08-02 11:33:00,
2013-08-02 07:43:00,71.0,70.0,29.97,NNW,347,1.0,2.0,97,0.00,,,0.35,,2013-08-02 11:43:00,
2013-08-02 07:52:00,71.0,70.0,29.98,NNW,334,1.0,2.0,98,0.00,,,0.35,,2013-08-02 11:52:00,
2013-08-02 08:02:00,72.0,71.0,29.99,NNW,330,0.0,1.0,98,0.00,,,0.35,,2013-08-02 12:02:00,
2013-08-02 08:12:00,72.0,71.0,29.99,NNW,330,0.0,1.0,98,0.00,,,0.35,,2013-08-02 12:12:00,
2013-08-02 08:22:00,73.0,72.0,29.99,West,270,1.0,1.0,98,0.00,,,0.35,,2013-08-02 12:22:00,
2013-08-02 08:33:00,73.0,72.0,29.99,West,270,1.0,1.0,98,0.00,,,0.35,,2013-08-02 12:33:00,
2013-08-02 08:43:00,74.0,73.0,30.00,NW,314,1.0,5.0,96,0.00,,,0.35,,2013-08-02 12:43:00,
2013-08-02 08:52:00,75.0,73.0,30.00,North,352,2.0,3.0,93,0.00,,,0.35,,2013-08-02 12:52:00,
2013-08-02 09:03:00,76.0,73.0,30.00,NNW,332,3.0,5.0,90,0.00,,,0.35,,2013-08-02 13:03:00,
2013-08-02 09:12:00,76.0,73.0,30.00,NNW,332,3.0,5.0,90,0.00,,,0.35,,2013-08-02 13:12:00,
2013-08-02 09:22:00,77.0,72.0,30.01,NW,307,2.0,8.0,86,0.00,,,0.35,,2013-08-02 13:22:00,
2013-08-02 09:33:00,77.0,72.0,30.01,NW,307,2.0,8.0,86,0.00,,,0.35,,2013-08-02 13:33:00,
2013-08-02 09:43:00,78.0,72.0,30.01,NNW,331,2.0,4.0,83,0.00,,,0.35,,2013-08-02 13:43:00,
2013-08-02 09:52:00,79.0,72.0,30.02,NW,305,3.0,5.0,79,0.00,,,0.35,,2013-08-02 13:52:00,
2013-08-02 10:02:00,80.0,72.0,30.01,East,97,1.0,4.0,78,0.00,,,0.35,,2013-08-02 14:02:00,
2013-08-02 10:12:00,80.0,72.0,30.01,East,97,1.0,4.0,78,0.00,,,0.35,,2013-08-02 14:12:00,
2013-08-02 10:22:00,81.0,73.0,30.00,North,1,0.0,4.0,76,0.00,,,0.35,,2013-08-02 14:22:00,
2013-08-02 10:32:00,81.0,72.0,30.01,NNE,27,2.0,4.0,74,0.00,,,0.35,,2013-08-02 14:32:00,
2013-08-02 10:43:00,81.0,72.0,30.01,NNE,27,2.0,4.0,74,0.00,,,0.35,,2013-08-02 14:43:00,
2013-08-02 10:53:00,82.0,72.0,30.01,NNE,30,1.0,5.0,72,0.00,,,0.35,,2013-08-02 14:53:00,
2013-08-02 11:03:00,82.0,72.0,30.02,WNW,287,2.0,3.0,72,0.00,,,0.35,,2013-08-02 15:03:00,
2013-08-02 11:12:00,82.0,72.0,30.02,WNW,287,2.0,3.0,72,0.00,,,0.35,,2013-08-02 15:12:00,
2013-08-02 11:22:00,84.0,73.0,30.02,NW,311,1.0,4.0,69,0.00,,,0.35,,2013-08-02 15:22:00,
2013-08-02 11:32:00,83.0,71.0,30.02,NE,46,2.0,5.0,68,0.00,,,0.35,,2013-08-02 15:32:00,
2013-08-02 11:43:00,83.0,71.0,30.02,NE,46,2.0,5.0,68,0.00,,,0.35,,2013-08-02 15:43:00,
2013-08-02 11:52:00,84.0,73.0,30.02,North,10,1.0,3.0,69,0.00,,,0.35,,2013-08-02 15:52:00,
2013-08-02 12:02:00,84.0,73.0,30.02,North,10,1.0,3.0,69,0.00,,,0.35,,2013-08-02 16:02:00,
2013-08-02 12:12:00,84.0,74.0,30.03,SSW,199,0.0,4.0,73,0.00,,,0.35,,2013-08-02 16:12:00,
2013-08-02 12:22:00,84.0,74.0,30.03,SSW,199,0.0,4.0,73,0.00,,,0.35,,2013-08-02 16:22:00,
2013-08-02 12:32:00,85.0,73.0,30.02,NW,325,1.0,3.0,67,0.00,,,0.35,,2013-08-02 16:32:00,
2013-08-02 12:43:00,85.0,73.0,30.02,NW,325,1.0,3.0,67,0.00,,,0.35,,2013-08-02 16:43:00,
2013-08-02 12:53:00,87.0,75.0,30.02,SW,217,1.0,4.0,67,0.00,,,0.35,,2013-08-02 16:53:00,
2013-08-02 13:02:00,88.0,77.0,30.02,SSE,161,1.0,4.0,69,0.00,,,0.35,,2013-08-02 17:02:00,
2013-08-02 13:12:00,88.0,77.0,30.02,SSE,161,1.0,4.0,69,0.00,,,0.35,,2013-08-02 17:12:00,
2013-08-02 13:22:00,88.0,75.0,30.02,ESE,103,2.0,3.0,66,0.00,,,0.35,,2013-08-02 17:22:00,
2013-08-02 13:35:00,88.0,75.0,30.02,ESE,103,2.0,3.0,66,0.00,,,0.35,,2013-08-02 17:35:00,
2013-08-02 13:43:00,87.0,73.0,30.02,ENE,63,1.0,3.0,64,0.00,,,0.35,,2013-08-02 17:43:00,
2013-08-02 13:52:00,88.0,73.0,30.01,SSE,167,2.0,5.0,62,0.00,,,0.35,,2013-08-02 17:52:00,
2013-08-02 14:12:00,87.0,74.0,30.01,NW,321,2.0,4.0,66,0.00,,,0.35,,2013-08-02 18:12:00,
2013-08-02 14:22:00,87.0,74.0,30.01,NNW,346,3.0,5.0,65,0.00,,,0.35,,2013-08-02 18:22:00,
2013-08-02 14:32:00,87.0,74.0,30.01,NNW,346,3.0,5.0,65,0.00,,,0.35,,2013-08-02 18:32:00,
2013-08-02 14:43:00,88.0,76.0,30.00,SW,219,2.0,4.0,67,0.00,,,0.35,,2013-08-02 18:43:00,
2013-08-02 14:52:00,87.0,73.0,30.00,West,277,1.0,5.0,64,0.00,,,0.35,,2013-08-02 18:52:00,
2013-08-02 15:02:00,87.0,73.0,30.00,West,277,1.0,5.0,64,0.00,,,0.35,,2013-08-02 19:02:00,
2013-08-02 15:12:00,88.0,74.0,30.00,WNW,283,2.0,4.0,64,0.00,,,0.35,,2013-08-02 19:12:00,
2013-08-02 15:22:00,89.0,74.0,29.99,NW,317,2.0,3.0,62,0.00,,,0.35,,2013-08-02 19:22:00,
2013-08-02 15:43:00,89.0,74.0,29.99,SSE,166,3.0,5.0,61,0.00,,,0.35,,2013-08-02 19:43:00,
2013-08-02 15:52:00,88.0,75.0,29.98,WNW,283,1.0,5.0,65,0.00,,,0.35,,2013-08-02 19:52:00,
2013-08-02 16:02:00,88.0,75.0,29.98,WNW,283,1.0,5.0,65,0.00,,,0.35,,2013-08-02 20:02:00,
2013-08-02 16:12:00,89.0,74.0,29.98,NNW,335,2.0,4.0,62,0.00,,,0.35,,2013-08-02 20:12:00,
2013-08-02 16:23:00,88.0,73.0,29.98,SSW,211,1.0,7.0,61,0.00,,,0.17,,2013-08-02 20:23:00,
2013-08-02 16:43:00,89.0,73.0,29.98,NW,313,3.0,5.0,60,0.00,,,0.17,,2013-08-02 20:43:00,
2013-08-02 16:52:00,89.0,73.0,29.99,SW,219,2.0,5.0,60,0.00,,,0.17,,2013-08-02 20:52:00,
2013-08-02 17:03:00,89.0,73.0,29.99,SW,219,2.0,5.0,60,0.00,,,0.17,,2013-08-02 21:03:00,
2013-08-02 17:12:00,89.0,73.0,29.99,SW,219,2.0,5.0,60,0.00,,,0.17,,2013-08-02 21:12:00,
2013-08-02 17:22:00,89.0,74.0,29.98,NNW,345,1.0,4.0,61,0.00,,,0.00,,2013-08-02 21:22:00,
2013-08-02 17:32:00,89.0,74.0,29.98,NNW,345,1.0,4.0,61,0.00,,,0.00,,2013-08-02 21:32:00,
2013-08-02 17:43:00,89.0,74.0,29.98,NNW,330,3.0,5.0,61,0.00,,,0.00,,2013-08-02 21:43:00,
2013-08-02 17:53:00,89.0,73.0,29.98,WNW,285,2.0,3.0,60,0.00,,,0.00,,2013-08-02 21:53:00,
2013-08-02 18:03:00,88.0,73.0,29.98,NW,319,3.0,5.0,61,0.00,,,0.00,,2013-08-02 22:03:00,
2013-08-02 18:12:00,88.0,73.0,29.98,NW,319,3.0,5.0,61,0.00,,,0.00,,2013-08-02 22:12:00,
2013-08-02 18:22:00,88.0,73.0,29.98,NW,319,3.0,5.0,61,0.00,,,0.00,,2013-08-02 22:22:00,
2013-08-02 18:32:00,88.0,73.0,29.98,WNW,300,1.0,3.0,62,0.00,,,0.00,,2013-08-02 22:32:00,
2013-08-02 18:43:00,88.0,73.0,29.98,WNW,300,1.0,3.0,62,0.00,,,0.00,,2013-08-02 22:43:00,
2013-08-02 18:52:00,87.0,74.0,29.98,WNW,293,1.0,2.0,65,0.00,,,0.00,,2013-08-02 22:52:00,
2013-08-02 19:02:00,86.0,73.0,29.98,WNW,295,0.0,3.0,66,0.00,,,0.00,,2013-08-02 23:02:00,
2013-08-02 19:12:00,86.0,73.0,29.98,WNW,295,0.0,3.0,66,0.00,,,0.00,,2013-08-02 23:12:00,
2013-08-02 19:22:00,86.0,75.0,29.98,WNW,295,0.0,1.0,70,0.00,,,0.00,,2013-08-02 23:22:00,
2013-08-02 19:32:00,86.0,75.0,29.98,WNW,293,0.0,2.0,70,0.00,,,0.00,,2013-08-02 23:32:00,
2013-08-02 19:43:00,86.0,75.0,29.98,WNW,293,0.0,2.0,70,0.00,,,0.00,,2013-08-02 23:43:00,
2013-08-02 19:53:00,85.0,75.0,29.99,WNW,294,0.0,1.0,71,0.00,,,0.00,,2013-08-02 23:53:00,
2013-08-02 20:02:00,84.0,74.0,29.99,SSE,152,0.0,0.0,73,0.00,,,0.00,,2013-08-03 00:02:00,
2013-08-02 20:12:00,84.0,74.0,29.99,SSE,152,0.0,0.0,73,0.00,,,0.00,,2013-08-03 00:12:00,
2013-08-02 20:22:00,82.0,74.0,29.99,SSE,152,0.0,0.0,76,0.00,,,0.00,,2013-08-03 00:22:00,
2013-08-02 20:33:00,81.0,74.0,30.00,SSE,152,0.0,0.0,79,0.00,,,0.00,,2013-08-03 00:33:00,
2013-08-02 20:43:00,81.0,74.0,30.00,SSE,152,0.0,0.0,79,0.00,,,0.00,,2013-08-03 00:43:00,
2013-08-02 20:52:00,79.0,74.0,30.00,SSE,153,0.0,0.0,85,0.00,,,0.00,,2013-08-03 00:52:00,
2013-08-02 21:03:00,77.0,73.0,30.01,SSE,153,0.0,0.0,88,0.00,,,0.00,,2013-08-03 01:03:00,
2013-08-02 21:12:00,77.0,73.0,30.01,SSE,153,0.0,0.0,88,0.00,,,0.00,,2013-08-03 01:12:00,
2013-08-02 21:22:00,77.0,74.0,30.01,SSW,205,0.0,1.0,91,0.00,,,0.00,,2013-08-03 01:22:00,
2013-08-02 21:32:00,76.0,74.0,30.01,SSW,205,0.0,0.0,92,0.00,,,0.00,,2013-08-03 01:32:00,
2013-08-02 21:42:00,76.0,74.0,30.01,SSW,205,0.0,0.0,92,0.00,,,0.00,,2013-08-03 01:42:00,
2013-08-02 21:53:00,75.0,73.0,30.01,SSW,205,0.0,0.0,93,0.00,,,0.00,,2013-08-03 01:53:00,
2013-08-02 22:02:00,75.0,73.0,30.01,SSW,205,0.0,0.0,93,0.00,,,0.00,,2013-08-03 02:02:00,
2013-08-02 22:12:00,75.0,73.0,30.02,SSW,205,0.0,0.0,94,0.00,,,0.00,,2013-08-03 02:12:00,
2013-08-02 22:32:00,75.0,73.0,30.02,SSW,205,0.0,0.0,94,0.00,,,0.00,,2013-08-03 02:32:00,
2013-08-02 22:43:00,75.0,73.0,30.03,SSW,205,0.0,0.0,95,0.00,,,0.00,,2013-08-03 02:43:00,
2013-08-02 22:52:00,75.0,73.0,30.03,SSW,205,0.0,0.0,95,0.00,,,0.00,,2013-08-03 02:52:00,
2013-08-02 23:12:00,75.0,74.0,30.03,SSW,205,0.0,0.0,96,0.00,,,0.00,,2013-08-03 03:12:00,
2013-08-02 23:22:00,75.0,74.0,30.03,SSE,163,2.0,3.0,97,0.00,,,0.00,,2013-08-03 03:22:00,
2013-08-02 23:43:00,76.0,75.0,30.03,SSE,159,3.0,5.0,97,0.00,,,0.00,,2013-08-03 03:43:00,
2013-08-02 23:53:00,76.0,75.0,30.03,SSW,197,1.0,4.0,96,0.00,,,0.00,,2013-08-03 03:53:00,